www.pogodaiklimat.ru

Погода и климат >> Архив погоды >> Индия >> Керала >> Кожикоде


ПОГОДА в Кожикоде

  • Прогноз погоды в Кожикоде
  • Монитор погоды в Кожикоде

АРХИВ ПОГОДЫ в Кожикоде

Время (UTC), дата Ветер
(напр.,м/с)
 
Видим.   Явления Облачность Т
(С)
Тd
(С)
f
(%)
Тe
(С)
Тes
(С)
Комфортность P
(гПа)
Po
(гПа)
Тmin
(С)
Tmax
(С)
R
(мм)
R24
(мм)
S
(см)
18 9.06 ЮЗ 2 4000 м сильн. дождь 10/5 600 м
[Cu Sc Ac As Ci sp]
+25.0 +24.6 98 +35 +35 очень
душно
1007.8 1007.2 9
21 9.06 штиль 0 4000 м {морось} 8/4 600 м
[Sc diur, vesp Ac trans]
+25.0 +24.6 98 +35 +35 очень
душно
1005.5 1004.9 9
00 10.06 штиль 0 4000 м дождь 10/5 600 м
[Cu Sc Ac As]
+25.2 +24.9 98 +36 +36 очень
душно
1005.2 1004.6 10
03 10.06 штиль 0 10 км в посл. час дождь 10/5 600 м
[Cu Sc Ac As]
+25.4 -0.1 19 +24 +25 комфорт 1007.3 1006.7 +24.7 +33.0 27
06 10.06 штиль 0 10 км слаб. дождь 10/5 600 м
[Cu Sc Ac As]
+26.0 +26.0 100 +39 +43 очень
душно
1008.1 1007.5 9
09 10.06 штиль 0 4000 м слаб. дождь 10/5 600 м
[Cu Sc Ac As]
+25.6 +25.6 100 +37 +41 очень
душно
1005.4 1004.8 28
12 10.06 штиль 0 4000 м в посл. час дождь 10/5 600 м
[Cu Sc Ac As]
+25.6 -0.2 18 +24 +24 комфорт 1006.1 1005.5 +29.0 48
15 10.06 штиль 0 4000 м {дождь} 9/4 600 м
[Sc diur, vesp Ac As Ci sp]
+25.2 +24.9 98 +36 +36 очень
душно
1007.5 1006.9 49
18 10.06 штиль 0 4000 м слаб. дождь 10/5 600 м
[Cu Sc Ac As]
+25.2 +21 +21 комфорт 1007.8 1007.2 50
21 10.06 ЮВ 1 4000 м {дождь} 10/5 600 м
[Cu Sc Ac As]
+25.2 +24.9 98 +36 +36 очень
душно
1005.3 1004.7 51
00 11.06 Ю 1 4000 м слаб. дождь 10/5 600 м
[Cu Sc Ac As]
+25.0 +25.0 100 +36 +36 очень
душно
1005.5 1004.9 56
03 11.06 штиль 0 4000 м в посл. час дождь 9/4 600 м
[Sc diur, vesp Ac As Ci sp]
+26.2 -0.2 18 +24 +27 комфорт 1007.3 1006.7 +25.0 +29.0 60
06 11.06 ЮЗ 2 10 км {дождь} 9/4 600 м
[Cb calv Ac As Ci sp]
+29.0 +27.6 92 +47 +55 опасность
перегрева
1007.7 1007.1 0.3
09 11.06 ЮЗ 2 4000 м {дождь} 10/5 600 м
[Cu Sc Ac As]
+28.2 +26.8 92 +44 +46 опасность
перегрева
1006.7 1006.1 12
12 11.06 ЮЗ 2 4000 м {дождь} 9/4 600 м
[Cu Sc Ac As Ci sp]
+29.2 -0.2 15 +27 +27 жарко 1005.7 1005.1 +30.2 12
15 11.06 ЮЗ 1 4000 м слаб. дождь 10/5 600 м
[Cu Sc Ac As Ci fib]
+27.8 +26.1 90 +42 +42 опасность
перегрева
1006.9 1006.3 13
18 11.06 ЮЗ 3 4000 м {дождь} 10/5 600 м
[Cb calv Ac As]
+27.4 +25.7 90 +40 +40 очень
душно
1008.8 1008.2 19
21 11.06 штиль 0 10 км в посл. час дождь 10/5 600 м
[Cu Sc Ac As]
+26.0 +26.0 100 +39 +39 очень
душно
1007.2 1006.6 25
00 12.06 штиль 0 4000 м {дождь} 10/5 600 м
[Cu Sc Ac As]
+26.0 +25.4 97 +38 +38 очень
душно
1006.6 1006.0 27
03 12.06 ЮЗ 1 4000 м в посл. час дождь 10/5 600 м
[Cu Sc Ac As]
+26.6 -0.2 17 +25 +26 комфорт 1009.4 1008.8 +25.6 +30.2 29
06 12.06 штиль 0 10 км в посл. час дождь 10/5 600 м
[Cu Sc Ac As]
+27.2 +26.4 95 +41 +45 опасность
перегрева
1009.2 1008.6 2
09 12.06 штиль 0 10 км {дождь} 10/5 600 м
[Cu Sc Ac As]
+29.2 +21.6 64 +37 +41 очень
душно
1007.7 1007.1 2
12 12.06 ЮЗ 3 4000 м гроза, ливневой дождь {туман} 10/3 600 м
[Sc diur, vesp Ac As]
+25.0 -0.2 19 +23 +24 комфорт 1009.1 1008.5 +30.0 12
15 12.06 штиль 0 4000 м в посл. час дождь {морось} 10/5 600 м
[Cu Sc Ac As]
+24.0 +24.0 100 +33 +33 очень
душно
1009.1 1008.5 25
18 12.06 штиль 0 4000 м 10/5 600 м
[Cu Sc Ac As Ci sp]
+24.4 +24.1 98 +34 +34 очень
душно
1009.9 1009.3 25
21 12.06 штиль 0 4000 м сильн. дождь 10/5 600 м
[Cu Sc Ac As]
+25.0 +25.0 100 +36 +36 очень
душно
1007.7 1007.1 30
00 13.06 штиль 0 4000 м слаб. дождь 10/5 600 м
[Cu Sc Ac As]
+25.0 +25.0 100 +36 +36 очень
душно
1007.8 1007.2 38
03 13.06 штиль 0 10 км слаб. морось 10/5 600 м
[Cu Sc Ac As]
+26.4 -0.1 18 +25 +26 комфорт 1009.7 1009.1 +23.8 +30.0 48
06 13.06 штиль 0 10 км {морось} 9/4 600 м
[Sc diur, vesp Ac As Ci sp]
+28.8 +28.0 95 +47 +57 опасность
перегрева
1010.0 1009.4 0.2
09 13.06 ЮЗ 2 10 км в посл. час дождь {гроза} 10/4 300 м
[Sc diur, vesp Ac As]
+25.8 +24.1 90 +36 +38 очень
душно
1007.9 1007.3 15
12 13.06 Ю 1 4000 м {гроза, дождь} 10/5 300 м
[Frnb Ac As]
1008.5 1007.9 +31.2 18
15 13.06 штиль 0 4000 м дождь {гроза} 10/4 300 м
[Sc diur, vesp Ac As Ci fib]
+25.0 +24.4 96 21
18 13.06 штиль 0 4000 м {дождь} 10/4 300 м
[Sc diur, vesp Ac As]
+25.0 +23.5 91 25
21 13.06 штиль 0 4000 м {дождь} 10/4 300 м
[Sc diur, vesp Ac As]
+25.0 +23.5 91 +34 +34 очень
душно
1009.1 1008.5 25
00 14.06 штиль 0 4000 м 8/3 300 м
[Sc diur, vesp Ac trans Ci sp]
+25.0 +24.1 95 +34 +34 очень
душно
1007.6 1007.0 25
03 14.06 штиль 0 10 км {гроза, дождь} 8/3 300 м
[Sc diur, vesp Ac trans Ci sp]
+26.0 -0.4 18 +24 +28 комфорт 1009.2 1008.6 +24.4 +31.2 48
06 14.06 штиль 0 10 км {гроза, дождь} 6/3 300 м
[Sc diur, vesp Ac trans]
+28.0 +26.0 89 +42 +56 опасность
перегрева
1009.6 1009.0
09 14.06 штиль 0 10 км {дождь, морось} 9/4 600 м
[Sc diur, vesp Ac As Ci sp]
+29.0 +27.6 92 5
12 14.06 штиль 0 10 км в посл. час дождь 6/3 600 м
[Sc diur, vesp Ac trans Ci sp]
+28.0 -0.2 16 +26 +27 жарко 1007.2 1006.6 8
15 14.06 штиль 0 4000 м сильн. дождь 10/5 600 м
[Cu Sc Ac As]
+25.4 +25.4 100 +37 +37 очень
душно
1009.5 1008.9 34
18 14.06 штиль 0 4000 м в посл. час дождь 10/3 600 м
[Sc diur, vesp Ac trans]
+25.4 +25.4 100 +37 +37 очень
душно
1010.2 1009.6 45
21 14.06 штиль 0 4000 м в посл. час дождь 9/5 600 м
[Cu Sc Ac As]
+25.0 +25.0 100 +36 +36 очень
душно
1008.4 1007.8 52
00 15.06 штиль 0 4000 м в посл. час дождь 9/4 600 м
[Cu Sc Ac As]
+25.4 +25.4 100 +37 +37 очень
душно
1007.7 1007.1 55
03 15.06 штиль 0 10 км {дождь} 6/3 600 м
[Sc diur, vesp Ac trans]
+27.2 -0.2 17 +25 +30 комфорт 1009.7 1009.1 +24.8 +31.0 63
06 15.06 штиль 0 10 км в посл. час дождь 8/4 600 м
[Sc diur, vesp Ac trans]
+27.8 +27.5 98 +45 +54 опасность
перегрева
1009.9 1009.3 7
09 15.06 штиль 0 10 км {дождь} 8/3 600 м
[Sc diur, vesp Ac trans]
+30.8 +28.3 87 +52 +61 опасность
перегрева
1008.1 1007.5 7
12 15.06 ЮЗ 1 10 км 6/3 600 м
[Sc diur, vesp Ac trans]
+30.8 -0.3 13 +28 +29 жарко 1007.6 1007.0 +31.6 7
15 15.06 штиль 0 4000 м {дождь} 6/3 300 м
[Sc diur, vesp Ac trans]
+28.4 +26.4 89 +43 +43 опасность
перегрева
1008.8 1008.2 9
18 15.06 штиль 0 4000 м {дождь} 8/8 300 м
[]
+27.4 +25.4 89 +40 +40 очень
душно
1009.9 1009.3 9
21 15.06 штиль 0 4000 м 8/3 300 м
[Sc diur, vesp Ac trans]
+27.0 +25.9 94 +40 +40 очень
душно
1008.3 1007.7 9
00 16.06 штиль 0 4000 м слаб. дождь 10/3 300 м
[Sc diur, vesp Ac As]
+26.2 +25.1 94 +38 +38 очень
душно
1007.0 1006.4 12
03 16.06 штиль 0 10 км слаб. дождь 9/3 300 м
[Sc diur, vesp Ac As Ci sp]
+27.4 -0.2 16 +25 +29 комфорт 1010.6 1010.0 +25.4 +31.6 16
06 16.06 штиль 0 10 км {дождь} 8/3 600 м
[Sc diur, vesp Ci sp]
+32.2 +28.9 83 +55 +72 опасность
перегрева
1010.4 1009.8
09 16.06 штиль 0 10 км 5/3 600 м
[Sc diur, vesp Ci sp]
+33.0 +27.5 73 +52 +67 опасность
перегрева
1008.2 1007.6
12 16.06 штиль 0 10 км 8/4 600 м
[Sc diur, vesp Ac trans Ci sp]
+31.6 -0.2 13 +28 +30 жарко 1007.6 1007.0 +33.7
15 16.06 штиль 0 4000 м 5/3 600 м
[Sc diur, vesp Ac trans]
+29.2 +26.4 85 +45 +45 опасность
перегрева
1010.2 1009.6

 

Местоположение метеостанции Кожикоде (Керала, Индия): широта 11.25 долгота 75.78 высота над уровнем моря 5 м.

В архиве по умолчанию представлена погода в Кожикоде за последнюю неделю. Архивные данные за месяц целиком и за предыдущие месяцы, начиная с января 2011 года, Вы можете получить, выбрав интересующий диапазон дат из раскрывающегося списка и нажав кнопку "Ввод!".


*Определитесь, кто Вы:
робот инопланетянин человек

Внимание! Время в таблицах - всемирное. Для получения местного времени необходимо прибавить поправку, которая равна 5.5 ч.

Смотрите также архив погоды в соседних городах и на ближайших метеорологических станциях:

Погода в Карипере (Керала, Индия) (23 км)
Погода в Каннаноре (Керала, Индия) (81 км)
Погода в Триссуре (Керала, Индия) (94 км)
Погода в Удагамандаламе (Тамилнад, Индия) (105 км)
Погода в Палаккаде (Керала, Индия) (109 км)
Погода в Кунуре (Тамилнад, Индия) (112 км)
Погода в Мадикери (Карнатака, Индия) (130 км)
Погода в Коти (Керала, Индия) (140 км)
Погода в Коимбатуре (Тамилнад, Индия) (141 км)
Погода в Чамраджнагаре (Карнатака, Индия) (146 км)

Пояснения к столбцам:

Ветер - указаны скорость ветра в м/с - средняя за 10 мин, порывы в срок и между сроками (в фигурных скобках) и направление, откуда дует ветер: С - северный, СВ - северо-восточный, В - восточный, ЮВ - юго-восточный, Ю - южный, ЮЗ - юго-западный, З - западный, СЗ - северо-западный.
Видимость - горизонтальная дальность видимости в метрах или километрах. При видимости от 1 до 10 км при отсутствии осадков обычно наблюдается дымка, при ухудшении видимости до 1 км и менее - туман. В сухую погоду видимость может ухудшаться дымом, пылью или мглою.
Явления - указаны атмосферные явления, наблюдавшиеся в срок или в последний час перед сроком; фигурными скобками обозначены явления, наблюдавшиеся между сроками (за 1-3 часа до срока); квадратными скобками обозначены град или гололедные отложения с указанием их диаметра в мм.
Облачность - указаны через наклонную черту общая и нижняя облачность в баллах и высота нижней границы облаков в метрах; квадратными скобками обозначены формы облаков: Ci - перистые, Cs - перисто-слоистые, Cc - перисто-кучевые, Ac - высококучевые, As - высокослоистые, Sc - слоисто-кучевые, Ns - слоисто-дождевые, Cu - кучевые, Cb - кучево-дождевые. Подробнее классификацию облаков см. в Атласе облаков (PDF).
T - Температура воздуха - температура, измеренная на высоте 2 м над землей.
Td - Температура точки росы - температура, при понижении до которой содержащийся в воздухе водяной пар достигнет насыщения.
f - Относительная влажность воздуха - влажноcть воздуха, измеренная на высоте 2 м над землей.
Te - Эффективная температура - температура, которую ощущает одетый по сезону человек в тени. Характеристика душности погоды. При расчете учитывается влияние влажности воздуха и скорости ветра на теплоощущения человека.
Tes - Эффективная температура на солнце - температура, которую ощущает человек, с поправкой на солнечный нагрев. Характеристика знойности погоды. Зависит от высоты солнца над горизонтом, облачности и скорости ветра. Ночью, в пасмурную погоду, а также при ветре 12 м/с и более поправка равна нулю.
P - Атмосферное давление - приведенное к уровню моря атмосферное давление.
Po - Атмосферное давление - измеренное на уровне метеостанции атмосферное давление.
Tmin - Минимальная температура - минимум температуры воздуха на высоте 2 м над землей.
Tmax - Максимальная температура - максимум температуры воздуха на высоте 2 м над землей.
R - Количество осадков - Количество выпавших осадков за период времени, мм. При наведении курсора мыши на число - период времени, за который выпало указанное количество осадков.
R24 - Количество осадков - Количество выпавших осадков за 24 часа, мм.
S - Снежный покров - Высота снежного покрова, см. При наведении курсора мыши на число - состояние снежного покрова и степень покрытия местности в баллах.